Location: Pilipovskiye Korichintsy
(49.1833°N, 27.4667°E)
Time: 22:30:15
(UTC+00:00)

Cosmos 1674 Rocket - Pass Details

Date: 14 July 2020
Orbit: 602 x 631 km, 82.5° (Epoch: 10 August)

Event Time Altitude Azimuth Distance (km) Brightness Sun altitude
Rises 01:03:32 0° 347° (NNW) 2,890 7.6 -10.0°
Reaches altitude 10° 01:05:48 10° 343° (NNW) 1,976 6.6 -9.8°
Maximum altitude 01:10:05 59° 265° (W) 708 3.6 -9.3°
Drops below altitude 10° 01:14:18 10° 186° (S) 1,946 5.6 -8.9°
Enters shadow 01:15:15 - 184° (S) 2,326 6.0 -8.8°
